Location: Gazon
(48.1318°N, 1.2708°W)
Time: 02:40:10
(UTC+00:00)

Cosmos 1674 - Pass Details

Date: 18 September 2020
Orbit: 494 x 518 km, 82.5° (Epoch: 29 October)

Event Time Altitude Azimuth Distance (km) Brightness Sun altitude
Rises 20:37:54 0° 344° (NNW) 2,654 7.0 -24.1°
Reaches altitude 10° 20:40:07 10° 338° (NNW) 1,762 6.1 -24.4°
Maximum altitude 20:43:47 42° 267° (W) 747 3.8 -24.9°
Enters shadow 20:44:11 41° 248° (WSW) 767 3.7 -25.0°
